Flag for India Weather past 2 weeks in Firozpur, Punjab, India

Now
84 °F

Fog.


Feels Like: 96 °F
Forecast: 84 / 103 °F
Wind: 5 mph from Southeast

Location: Lahore Airport

Current Time: Aug 2, 2014 at 8:35:04 AM

Latest Report: Aug 2, 2014 at 7:55 AM


Visibility: 2 mi

Pressure: 29.53 "Hg

Humidity: 84%

Dew point: 79 °F

Location of FirozpurLocation

Historic Weather in Firozpur — Graph

°F

Firozpur temperature yesterday

Maximum temperature yesterday: 95 °F (at 4:25 PM)
Minimum temperature yesterday: 81 °F (at 11:55 AM)
Average temperature yesterday: 88 °F

Past Weeks' High & Low Weather Summary

 TemperatureHumidityPressure
High102 °F (Jul 22, 4:55 PM)100% (Jul 18, 12:59 PM)29.68 "Hg (Jul 18, 12:59 PM)
Low75 °F (Jul 29, 10:55 AM)12% (Jul 21, 1:29 PM)29.36 "Hg (Jul 18, 4:55 PM)
Average88 °F70%29.53 "Hg
* Reported Jul 18 6:55 AM — Aug 2 7:25 AM, Firozpur, Weather by CustomWeather, © 2014

Note: Actual official high and low records may vary slightly from our data, if they occured in-between our weather recording intervals... More about our weather records

Advertising

Firozpur weather history for previous 24 hours

 ConditionsComfort  
Time TempWeatherWind HumidityBarometerVisibility
7:25 AM
Aug 2
84 °FFog.5 mph84%29.53 "Hg1 mi
6:55 AM84 °FFog.3 mph84%29.50 "Hg1 mi
6:29 AM82 °FFog.5 mph84%29.50 "Hg1 mi
5:25 AM82 °FThunderstorms. Passing clouds.8 mph84%29.50 "Hg2 mi
4:55 AM84 °FPassing clouds.6 mph84%29.50 "Hg2 mi
4:25 AM84 °FPassing clouds.7 mph84%29.50 "Hg2 mi
3:55 AM86 °FPassing clouds.5 mph75%29.50 "Hg2 mi
3:25 AM86 °FPassing clouds.3 mph75%29.50 "Hg2 mi
2:55 AM86 °FPassing clouds.5 mph75%29.50 "Hg2 mi
2:25 AM86 °FPassing clouds.3 mph75%29.53 "Hg2 mi
1:52 AM86 °FPassing clouds.5 mph75%29.53 "Hg2 mi
1:25 AM86 °FPassing clouds.5 mph75%29.53 "Hg2 mi
12:55 AM88 °FPassing clouds.5 mph70%29.53 "Hg2 mi
11:55 PM
Aug 1
88 °FPassing clouds.6 mph70%29.53 "Hg2 mi
11:25 PM88 °FPassing clouds.5 mph70%29.53 "Hg2 mi
9:55 PM88 °FPassing clouds.5 mph70%29.50 "Hg2 mi
9:25 PM88 °FPassing clouds.5 mph70%29.50 "Hg2 mi
8:55 PM90 °FPassing clouds.6 mph67%29.50 "Hg2 mi
8:25 PM90 °FPassing clouds.9 mph67%29.47 "Hg2 mi
7:55 PM90 °FPassing clouds.9 mph59%29.47 "Hg2 mi
7:25 PM90 °FScattered clouds.10 mph59%29.45 "Hg2 mi
6:55 PM91 °FScattered clouds.6 mph59%29.45 "Hg2 mi
6:25 PM93 °FScattered clouds.6 mph56%29.45 "Hg2 mi
5:55 PM93 °FScattered clouds.6 mph59%29.45 "Hg3 mi
5:25 PM95 °FScattered clouds.6 mph56%29.47 "Hg3 mi
4:55 PM95 °FScattered clouds.6 mph56%29.47 "Hg3 mi
4:25 PM95 °FScattered clouds.No wind56%29.47 "Hg3 mi
3:55 PM93 °FPassing clouds.3 mph59%29.50 "Hg3 mi
3:25 PM91 °FPassing clouds.5 mph63%29.50 "Hg3 mi
2:25 PM91 °FPassing clouds.7 mph63%29.53 "Hg3 mi
1:55 PM88 °FScattered clouds.5 mph66%29.56 "Hg3 mi
1:25 PM86 °FScattered clouds.8 mph70%29.56 "Hg3 mi
12:55 PM82 °FBroken clouds.13 mph74%29.59 "Hg2 mi
12:25 PM81 °FBroken clouds.8 mph79%29.59 "Hg2 mi
11:55 AM81 °FThunderstorms. Broken clouds.14 mph79%29.62 "Hg2 mi
11:25 AM84 °FThunderstorms. Broken clouds.17 mph84%29.62 "Hg2 mi
10:55 AM91 °FScattered clouds.3 mph67%29.62 "Hg2 mi
10:25 AM91 °FScattered clouds.3 mph67%29.62 "Hg2 mi
9:55 AM90 °FScattered clouds.6 mph71%29.62 "Hg2 mi
9:25 AM90 °FScattered clouds.6 mph71%29.62 "Hg2 mi
8:00 AM86 °FFog.5 mph79%29.59 "Hg1 mi
Weather by CustomWeather, © 2014

See weather overviewHow to use our weather pages